FW3102 Weather Reports


Display with metric or nautical units.
time (UTC)temp
F
wind
direction
speed
MPH
gust
MPH
rain 1hr
in
rain 24hr
in
rain mn
in
humidity
%
barometer
mb
20260509070100 52 40 0.0 2.0 0.00 0.00 0.00 47 1010.9
20260509064602 52 37 0.0 5.0 0.00 0.00 0.00 47 1010.8
20260509063059 53 123 0.0 2.0 0.00 0.00 0.00 47 1010.7
20260509061554 53 46 0.0 3.0 0.00 0.00 0.00 47 1010.5
20260509060106 53 53 1.0 3.0 0.00 0.00 0.00 47 1010.2
20260509054550 53 80 1.0 4.0 0.00 0.00 0.00 47 1010.1
20260509053110 54 68 0.0 2.0 0.00 0.00 0.00 47 1010.0
20260509051552 54 34 1.0 3.0 0.00 0.00 0.00 46 1009.8
20260509050046 54 35 1.0 4.0 0.00 0.00 0.00 46 1009.7
20260509044611 55 41 0.0 2.0 0.00 0.00 0.00 45 1009.6
20260509043103 55 42 0.0 4.0 0.00 0.00 0.00 44 1009.1
20260509041541 56 38 1.0 5.0 0.00 0.00 0.00 44 1008.9
20260509040043 56 30 2.0 5.0 0.00 0.00 0.00 43 1008.7
20260509034541 57 49 2.0 5.0 0.00 0.00 0.00 42 1008.6
20260509033036 57 61 2.0 6.0 0.00 0.00 0.00 41 1008.3
20260509031550 58 338 1.0 9.0 0.00 0.00 0.00 40 1008.0
20260509030055 59 8 1.0 6.0 0.00 0.00 0.00 36 1007.7
20260509024538 60 325 2.0 7.0 0.00 0.00 0.00 37 1007.5
20260509023034 60 61 1.0 5.0 0.00 0.00 0.00 36 1007.3
20260509021536 61 323 2.0 6.0 0.00 0.00 0.00 35 1007.3
20260509020028 62 346 3.0 10.0 0.00 0.00 0.00 34 1007.2
20260509014528 63 355 3.0 7.0 0.00 0.00 0.00 33 1007.1
20260509013026 63 44 2.0 6.0 0.00 0.00 0.00 32 1007.0
20260509011526 64 323 2.0 7.0 0.00 0.00 0.00 32 1006.9
20260509010026 64 33 2.0 5.0 0.00 0.00 0.00 31 1006.8
20260509004529 65 11 2.0 7.0 0.00 0.00 0.00 31 1006.8
20260509003025 65 23 1.0 5.0 0.00 0.00 0.00 31 1006.8
20260509001524 65 66 2.0 6.0 0.00 0.00 0.00 30 1006.9
20260509000023 66 305 2.0 8.0 0.00 0.00 0.00 30 1006.8
20260508234522 66 308 2.0 6.0 0.00 0.00 0.00 30 1006.9
20260508233022 66 80 2.0 5.0 0.00 0.00 0.00 29 1006.9
20260508231520 67 16 3.0 7.0 0.00 0.00 0.00 29 1006.8
20260508230018 67 22 4.0 9.0 0.00 0.00 0.00 28 1007.0
20260508224517 66 329 3.0 9.0 0.00 0.00 0.00 29 1007.0
20260508223035 67 316 4.0 9.0 0.00 0.00 0.00 28 1007.0
20260508221511 67 60 3.0 9.0 0.00 0.00 0.00 28 1006.9
20260508220013 67 38 1.0 9.0 0.00 0.00 0.00 28 1006.8
20260508214507 67 288 3.0 6.0 0.00 0.00 0.00 29 1006.8
20260508213018 68 58 3.0 7.0 0.00 0.00 0.00 28 1006.8
20260508211503 67 319 2.0 7.0 0.00 0.00 0.00 28 1006.7
20260508210002 67 16 2.0 10.0 0.00 0.00 0.00 28 1006.9
20260508204601 67 29 2.0 5.0 0.00 0.00 0.00 28 1006.7
20260508203108 66 326 1.0 9.0 0.00 0.00 0.00 29 1006.9
20260508201605 66 33 2.0 8.0 0.00 0.00 0.00 29 1006.8
20260508200058 66 39 3.0 9.0 0.00 0.00 0.00 29 1006.8
20260508194556 66 82 2.0 9.0 0.00 0.00 0.00 29 1006.9
20260508193102 66 50 3.0 8.0 0.00 0.00 0.00 28 1006.9
20260508191555 66 44 2.0 6.0 0.00 0.00 0.00 28 1006.9
20260508190052 65 50 3.0 8.0 0.00 0.00 0.00 28 1007.0
20260508184551 65 56 2.0 8.0 0.00 0.00 0.00 29 1007.0
20260508183048 65 60 1.0 7.0 0.00 0.00 0.00 30 1007.0
20260508181546 65 38 3.0 5.0 0.00 0.00 0.00 30 1007.0
20260508180043 64 316 2.0 7.0 0.00 0.00 0.00 31 1007.2
20260508174544 63 31 2.0 7.0 0.00 0.00 0.00 33 1006.9
20260508173038 63 56 2.0 9.0 0.00 0.00 0.00 33 1006.9
20260508171537 63 311 3.0 6.0 0.00 0.00 0.00 33 1006.8
20260508170035 63 143 2.0 7.0 0.00 0.00 0.00 33 1006.9
20260508164533 63 39 2.0 7.0 0.00 0.00 0.00 33 1006.9
20260508163034 62 107 3.0 7.0 0.00 0.00 0.00 33 1006.7
20260508161526 61 316 3.0 8.0 0.00 0.00 0.00 36 1006.6
20260508160025 60 355 4.0 9.0 0.00 0.00 0.00 39 1006.6
20260508154520 59 73 4.0 8.0 0.00 0.00 0.00 42 1006.5
20260508153017 58 60 3.0 5.0 0.00 0.00 0.00 43 1006.4
20260508151513 57 35 1.0 6.0 0.00 0.00 0.00 45 1006.3
20260508150033 56 54 2.0 6.0 0.00 0.00 0.00 46 1006.2
20260508144507 55 51 2.0 6.0 0.00 0.00 0.00 47 1006.0
20260508143007 54 35 1.0 5.0 0.00 0.00 0.00 49 1006.0
20260508141606 52 103 2.0 5.0 0.00 0.00 0.00 51 1005.9
20260508140107 52 92 0.0 3.0 0.00 0.00 0.00 52 1005.7
20260508134556 51 30 1.0 3.0 0.00 0.00 0.00 52 1005.7
20260508133106 50 37 0.0 1.0 0.00 0.00 0.00 57 1005.5
20260508131600 49 48 0.0 1.0 0.00 0.00 0.00 60 1005.5
20260508130058 48 37 0.0 2.0 0.00 0.00 0.00 60 1005.5
20260508124551 45 39 0.0 3.0 0.00 0.00 0.00 64 1005.6
20260508123050 44 31 0.0 2.0 0.00 0.00 0.00 67 1005.1
20260508121550 43 51 0.0 0.0 0.00 0.00 0.00 67 1004.7
20260508120049 43 52 0.0 0.0 0.00 0.00 0.00 67 1004.7
20260508114546 43 52 0.0 0.0 0.00 0.00 0.00 66 1004.6
20260508113043 44 52 0.0 0.0 0.00 0.00 0.00 65 1004.7
20260508111544 45 52 0.0 0.0 0.00 0.00 0.00 66 1004.7
20260508110041 44 52 0.0 0.0 0.00 0.00 0.00 67 1004.7
20260508104540 45 52 0.0 0.0 0.00 0.00 0.00 66 1004.8
20260508103044 45 52 0.0 1.0 0.00 0.00 0.00 65 1004.8
20260508101543 46 52 0.0 0.0 0.00 0.00 0.00 61 1004.8
20260508100037 47 44 0.0 1.0 0.00 0.00 0.00 58 1005.1
20260508094534 47 88 0.0 0.0 0.00 0.00 0.00 58 1005.5
20260508093036 47 88 0.0 0.0 0.00 0.00 0.00 57 1005.1
20260508091533 47 88 0.0 0.0 0.00 0.00 0.00 57 1005.1
20260508090036 46 88 0.0 0.0 0.00 0.00 0.00 59 1005.2
20260508084530 45 88 0.0 0.0 0.00 0.00 0.00 60 1005.2
20260508083029 45 88 0.0 0.0 0.00 0.00 0.00 60 1005.1
20260508081528 45 88 0.0 0.0 0.00 0.00 0.00 59 1005.0
20260508080044 46 88 0.0 0.0 0.00 0.00 0.00 58 1005.0
20260508074523 47 88 0.0 0.0 0.00 0.00 0.00 57 1005.1
20260508073020 47 88 0.0 0.0 0.00 0.00 0.00 56 1005.1
20260508071517 49 88 0.0 0.0 0.00 0.00 0.00 54 1005.1